Date String (YYYY-MM-DD hh:mm:ss) UTC,Instrument flags,Ambient pressure (hPa),Sample flow (lpm),Bypass flow (lpm),Sample temperature (°C),Ambient temperature (°C),ASC tube jacket temperature (°C),LED temperature (°C),Box temperature (°C),Sample RH (%),Span deviation,Mass concentration (μg/m³),Mass concentration (μg/m³),Mass concentration (μg/m³)
DateTimeUTC,F1_M11,P_M11,Q1_M11,Q2_M11,T1_M11,T2_M11,T3_M11,T4_M11,T5_M11,U1_M11,ZSPAN_M11,X0_M11,X2_M11,X1_M11
2022-10-13 01:00:00,,0830.4,5.00,0.00,30.4,28.9,00.0,39.3,32.2,13.6,0000.0,0016.18,0006.34,0004.93
2022-10-13 01:01:00,,0830.3,5.00,0.00,30.4,28.9,00.0,39.3,32.2,13.6,0000.0,0016.66,0006.45,0005.00
2022-10-13 01:02:00,,0830.4,5.00,0.00,30.4,28.9,00.0,39.3,32.2,13.6,0000.0,0017.75,0006.55,0005.06
2022-10-13 01:03:00,,0830.4,5.00,0.00,30.4,28.9,00.0,39.3,32.2,13.6,0000.0,0019.69,0006.64,0005.09
2022-10-13 01:04:00,,0830.4,5.00,0.00,30.4,28.9,00.0,39.3,32.2,13.6,0000.0,0019.89,0006.63,0005.12
2022-10-13 01:05:00,,0830.4,5.01,0.00,30.4,28.9,00.0,39.3,32.2,13.5,0000.0,0020.79,0006.62,0005.15
2022-10-13 01:06:00,,0830.4,4.99,0.00,30.4,28.8,00.0,39.3,32.1,13.6,0001.8,0020.67,0006.60,0005.18
2022-10-13 01:07:00,,0830.4,5.00,0.00,30.4,28.8,00.0,39.3,32.1,13.6,0001.6,0020.06,0006.58,0005.21
2022-10-13 01:08:00,,0830.4,5.00,0.00,30.4,28.8,00.0,39.3,32.1,13.6,0000.0,0019.83,0006.55,0005.20
2022-10-13 01:09:00,,0830.4,5.01,0.00,30.4,28.8,00.0,39.3,32.1,13.6,0000.0,0021.30,0006.53,0005.16
2022-10-13 01:10:00,,0830.4,4.99,0.00,30.4,28.8,00.0,39.3,32.1,13.6,0000.0,0022.37,0006.60,0005.13
2022-10-13 01:11:00,,0830.5,5.00,0.00,30.4,28.8,00.0,39.3,32.1,13.6,0000.0,0021.51,0006.56,0005.09
2022-10-13 01:12:00,,0830.6,5.01,0.00,30.4,28.9,00.0,39.3,32.1,13.6,0000.0,0020.93,0006.51,0005.04
2022-10-13 01:13:00,,0830.6,5.01,0.00,30.4,28.9,00.0,39.3,32.2,13.7,0000.0,0019.95,0006.47,0004.99
2022-10-13 01:14:00,,0830.6,4.98,0.00,30.4,29.0,00.0,39.3,32.2,13.7,0001.0,0018.88,0006.36,0004.98
2022-10-13 01:15:00,,0830.6,5.00,0.00,30.4,28.9,00.0,39.3,32.2,13.6,0000.0,0018.44,0006.35,0004.99
2022-10-13 01:16:00,,0830.6,5.01,0.00,30.4,28.9,00.0,39.3,32.2,13.6,0000.0,0017.41,0006.34,0004.97
2022-10-13 01:17:00,,0830.6,5.00,0.00,30.4,29.0,00.0,39.3,32.2,13.6,0000.0,0018.80,0006.36,0004.95
2022-10-13 01:18:00,,0830.6,4.99,0.00,30.4,29.0,00.0,39.3,32.2,13.6,0000.0,0019.14,0006.37,0004.92
2022-10-13 01:19:00,,0830.6,5.00,0.00,30.4,28.9,00.0,39.3,32.2,13.6,0000.0,0020.22,0006.47,0004.93
2022-10-13 01:20:00,,0830.6,5.00,0.00,30.4,28.9,00.0,39.3,32.2,13.6,0000.0,0019.42,0006.48,0004.93
2022-10-13 01:21:00,,0830.6,4.99,0.00,30.4,28.9,00.0,39.3,32.2,13.6,0000.0,0018.00,0006.43,0004.92
2022-10-13 01:22:00,,0830.6,5.00,0.00,30.4,28.9,00.0,39.3,32.2,13.6,0000.0,0018.23,0006.39,0004.93
2022-10-13 01:23:00,,0830.6,5.01,0.00,30.4,28.9,00.0,39.3,32.2,13.6,0000.0,0019.26,0006.41,0004.93
2022-10-13 01:24:00,,0830.6,5.00,0.00,30.4,28.9,00.0,39.3,32.2,13.6,0000.0,0019.74,0006.41,0004.92
2022-10-13 01:25:00,,0830.7,5.01,0.00,30.4,28.9,00.0,39.3,32.2,13.6,0000.0,0019.81,0006.48,0004.92
2022-10-13 01:26:00,,0830.7,4.99,0.00,30.4,28.9,00.0,39.3,32.2,13.6,0000.0,0020.35,0006.48,0004.90
2022-10-13 01:27:00,,0830.7,5.00,0.00,30.4,28.9,00.0,39.3,32.2,13.5,0000.0,0021.47,0006.47,0004.90
2022-10-13 01:28:00,,0830.6,5.00,0.00,30.4,28.9,00.0,39.3,32.3,13.6,0000.0,0020.14,0006.50,0004.92
2022-10-13 01:29:00,,0830.6,4.99,0.00,30.5,28.9,00.0,39.3,32.2,13.6,0000.0,0019.87,0006.54,0004.92
2022-10-13 01:30:00,,0830.7,5.01,0.00,30.4,28.8,00.0,39.3,32.2,13.6,0000.0,0018.95,0006.50,0004.91
2022-10-13 01:31:00,,0830.8,5.00,0.00,30.5,28.9,00.0,39.3,32.2,13.5,0000.0,0018.83,0006.44,0004.90
2022-10-13 01:32:00,,0830.7,5.00,0.00,30.5,28.9,00.0,39.3,32.2,13.5,0000.0,0019.10,0006.45,0004.90
2022-10-13 01:33:00,,0830.8,5.00,0.00,30.5,28.9,00.0,39.3,32.2,13.5,0000.0,0018.38,0006.46,0004.89
2022-10-13 01:34:00,,0830.7,5.00,0.00,30.5,28.9,00.0,39.3,32.2,13.5,0000.0,0017.56,0006.48,0004.89
2022-10-13 01:35:00,,0830.8,4.99,0.00,30.5,29.0,00.0,39.3,32.3,13.5,0000.0,0016.79,0006.45,0004.88
2022-10-13 01:36:00,,0830.8,5.00,0.00,30.5,29.0,00.0,39.3,32.3,13.5,0000.0,0016.50,0006.43,0004.86
2022-10-13 01:37:00,,0830.8,5.00,0.00,30.5,29.0,00.0,39.3,32.3,13.4,0000.0,0016.34,0006.42,0004.84
2022-10-13 01:38:00,,0830.8,5.00,0.00,30.5,29.0,00.0,39.3,32.3,13.3,0000.0,0016.68,0006.41,0004.84
2022-10-13 01:39:00,,0830.8,5.00,0.00,30.5,29.0,00.0,39.3,32.3,13.4,0000.0,0017.17,0006.38,0004.81
2022-10-13 01:40:00,,0830.7,5.00,0.00,30.5,29.0,00.0,39.3,32.3,13.3,0000.0,0016.89,0006.31,0004.77
2022-10-13 01:41:00,,0830.7,4.98,0.00,30.5,28.9,00.0,39.3,32.2,13.3,0000.0,0016.50,0006.26,0004.75
2022-10-13 01:42:00,,0830.8,5.00,0.00,30.5,28.8,00.0,39.3,32.2,13.4,0000.0,0016.31,0006.25,0004.73
2022-10-13 01:43:00,,0830.8,5.00,0.00,30.4,28.7,00.0,39.3,32.2,13.4,0000.0,0015.72,0006.20,0004.71
2022-10-13 01:44:00,,0830.7,5.00,0.00,30.4,28.8,00.0,39.3,32.2,13.4,0000.0,0015.62,0006.17,0004.69
2022-10-13 01:45:00,,0830.8,5.00,0.00,30.4,28.8,00.0,39.3,32.2,13.3,0000.0,0016.58,0006.14,0004.68
2022-10-13 01:46:00,,0830.8,5.00,0.00,30.4,28.8,00.0,39.3,32.2,13.3,0000.0,0016.82,0006.15,0004.68
2022-10-13 01:47:00,,0830.8,5.00,0.00,30.4,28.8,00.0,39.3,32.2,13.3,0000.0,0016.74,0006.15,0004.68
2022-10-13 01:48:00,,0830.7,5.00,0.00,30.4,28.9,00.0,39.3,32.2,13.3,0000.0,0016.48,0006.11,0004.67
2022-10-13 01:49:00,,0830.8,4.99,0.00,30.4,28.9,00.0,39.3,32.2,13.3,0000.0,0014.97,0006.07,0004.66
2022-10-13 01:50:00,,0830.8,5.00,0.00,30.4,28.9,00.0,39.3,32.2,13.3,0000.0,0013.77,0006.09,0004.66
2022-10-13 01:51:00,,0830.7,5.00,0.00,30.4,28.9,00.0,39.3,32.2,13.3,0000.0,0013.72,0006.11,0004.66
2022-10-13 01:52:00,,0830.7,5.01,0.00,30.4,28.9,00.0,39.3,32.2,13.3,0000.0,0013.76,0006.14,0004.66
2022-10-13 01:53:00,,0830.7,5.00,0.00,30.4,28.9,00.0,39.3,32.2,13.3,0000.0,0014.47,0006.14,0004.66
2022-10-13 01:54:00,,0830.8,4.98,0.00,30.4,28.9,00.0,39.3,32.2,13.3,0000.0,0015.45,0006.11,0004.65
2022-10-13 01:55:00,,0830.8,5.00,0.00,30.4,28.9,00.0,39.3,32.2,13.3,0000.0,0016.91,0006.07,0004.63
2022-10-13 01:56:00,,0830.8,5.01,0.00,30.4,28.9,00.0,39.3,32.1,13.4,0000.0,0015.75,0006.02,0004.61
2022-10-13 01:57:00,,0830.8,5.00,0.00,30.4,28.9,00.0,39.3,32.2,13.4,0000.0,0015.52,0005.96,0004.58
2022-10-13 01:58:00,,0830.7,5.00,0.00,30.4,28.9,00.0,39.3,32.2,13.4,0000.0,0015.52,0005.91,0004.57
2022-10-13 01:59:00,,0830.7,4.98,0.00,30.4,28.9,00.0,39.3,32.2,13.4,0000.0,0016.24,0005.89,0004.56
